[[{"header":{"parameterUnit":"m.s-1","parameterCategory":1,"la1":30.2991,"la2":30.254,"lo1":-89.0895,"lo2":-89.0444,"dy":0.0017,"dx":0.0017,"nx":28,"ny":28,"refTime":"2023-08-05T09:00:00:Z","depth":0,"parameterNumber":2,"parameterNumberName":"U-component_of_WINDS"},"data":[0,0,0,0,0,0,0,0,0,0,0,0,0,0,0,0,0,0,0,0,0,0,0,0,0,0,0,0,0,0,0,0,0,0,0,0,0,0,0,0,0,0,0,0,0,0,0,0,0,0,0,0,0,0,0,0,0,0,2.4863,2.4864,0,2.5031,2.5033,2.5035,2.5069,2.5068,2.5067,2.5065,2.5242,2.5248,2.5254,0,0,0,0,0,0,0,0,0,0,0,0,0,2.4576,2.4581,2.4862,2.4865,2.4867,2.503,2.5033,2.5035,2.5069,2.5068,2.5066,2.5065,2.524,2.5247,2.5254,0,0,0,0,0,0,0,0,0,0,0,0,0,2.4718,2.4582,2.4862,2.4903,2.4909,2.503,2.5033,2.5036,2.507,2.5068,2.5066,2.5064,2.5238,2.5247,2.5255,2.5348,0,0,2.5282,2.5286,0,0,0,0,0,0,0,0,2.471,2.4728,2.4895,2.4901,2.4907,2.5027,2.4996,2.5141,2.507,2.5009,2.5065,2.5063,2.5172,2.5187,2.5222,2.5357,2.5364,2.5283,2.5288,2.5292,2.5295,0,0,0,0,0,0,0,2.47,2.4721,2.4929,2.4898,2.4905,2.4915,2.4933,2.5024,2.51,2.5014,2.5017,2.5036,2.5175,2.5214,2.5227,2.5367,2.5283,2.5291,2.5296,2.53,2.5587,2.5589,0,0,0,0,0,0,2.4682,2.4713,2.4924,2.4934,2.4801,2.4922,2.4942,2.499,2.5099,2.5113,2.5037,2.5037,2.52,2.5216,2.5233,2.5349,2.5292,2.5301,2.5306,2.5584,2.5587,2.559,0,0,0,0,0,0,2.4676,2.47,2.4917,2.4824,2.4853,2.4929,2.4983,2.4995,2.5033,2.5116,2.513,2.5063,2.5199,2.5221,2.5319,2.5356,2.5305,2.5313,2.5582,2.5585,2.5588,2.5582,0,0,0,0,0,0,2.4667,2.4698,2.4733,2.4825,2.4857,2.4999,2.4985,2.4999,2.5048,2.5049,2.5144,2.5158,2.5199,2.5306,2.5328,2.5367,2.5319,2.5579,2.5583,2.5587,2.5579,2.5584,2.5589,0,0,0,0,0,2.4657,2.4725,2.4734,2.476,2.4902,2.5001,2.502,2.5064,2.5051,2.5087,2.5141,2.5154,2.5348,2.5316,2.5341,2.5383,2.5577,2.5582,2.5587,2.5577,2.5583,2.5589,0,0,0,0,0,0,2.4637,2.4738,2.4749,2.4849,2.4916,2.5006,2.5053,2.507,2.5143,2.5141,2.5196,2.5217,2.5312,2.5358,2.532,2.5479,2.5462,2.5473,2.5445,2.5452,2.5457,2.5444,2.5327,0,0,0,0,0,2.4644,2.4714,2.4799,2.4879,2.4912,2.4977,2.5021,2.505,2.5122,2.5151,2.5212,2.5282,2.5359,2.5409,2.5484,2.5586,2.5608,2.5628,2.5633,2.5637,2.5645,2.5702,2.5712,2.5607,2.5607,2.5607,0,0,2.466,2.4723,2.4764,2.4877,2.4932,2.5004,2.5,2.5077,2.5132,2.5163,2.5259,2.5306,2.5389,2.5489,2.5537,2.5531,2.5679,2.5643,2.5646,2.5652,2.5709,2.5718,2.5727,2.561,2.561,2.5609,0,0,2.4724,2.478,2.4852,2.4907,2.499,2.5033,2.5051,2.5139,2.5171,2.5268,2.5293,2.536,2.5491,2.5549,2.5595,2.5683,2.5698,2.5706,2.5732,2.5788,2.5796,2.5804,2.5834,2.5845,2.5714,2.5714,2.5714,0,2.4733,2.4842,2.4888,2.4963,2.5012,2.5043,2.5117,2.5169,2.5273,2.5307,2.5298,2.5463,2.5521,2.5635,2.5656,2.5693,2.5716,2.5695,2.5791,2.5799,2.5807,2.5837,2.5848,2.5715,2.5715,2.5714,2.5714,0,2.4849,2.4924,2.4973,2.507,2.5125,2.52,2.5258,2.5308,2.5333,2.5377,2.5476,2.5547,2.5637,2.5666,2.5692,2.5785,2.5778,2.578,2.5763,2.5816,2.5845,2.5857,2.5715,2.5715,2.5715,2.5715,0,0,2.4904,2.5027,2.5044,2.5089,2.5183,2.5243,2.532,2.5406,2.5448,2.5519,2.5585,2.5696,2.5698,2.575,2.5783,2.5832,2.5896,2.5827,2.583,2.5837,2.6002,2.6,2.6012,2.5907,2.591,2.5912,2.5995,0,2.498,2.5115,2.5159,2.5273,2.5343,2.5374,2.5441,2.5507,2.5551,2.5618,2.5668,2.5744,2.5741,2.5773,2.5823,2.5877,2.593,2.5872,2.597,2.5973,2.5946,2.6027,2.6025,2.61,2.6007,2.6009,2.601,0,2.5085,2.5156,2.5277,2.5362,2.5393,2.5452,2.5536,2.5599,2.5675,2.5704,2.5763,2.5791,2.5874,2.5854,2.5969,2.5928,2.5972,2.6004,2.6009,2.6018,2.5993,2.6039,2.6125,2.6136,2.6029,2.6027,2.6026,0,2.5112,2.5239,2.5327,2.5365,2.5467,2.5508,2.5553,2.5627,2.5676,2.575,2.5782,2.5865,2.591,2.5974,2.6025,2.6006,2.6136,2.6119,2.6162,2.6161,2.6187,2.6184,2.6281,2.6216,2.6216,2.6216,2.6216,0,2.5191,2.5263,2.5341,2.5395,2.5477,2.5528,2.5608,2.5655,2.5721,2.5786,2.5819,2.5879,2.5943,2.6012,2.6053,2.6141,2.6162,2.6188,2.6198,2.6184,2.6181,2.6212,2.6208,2.6219,2.6218,2.6218,2.6217,0,2.5235,2.5289,2.5387,2.5476,2.55,2.5557,2.5634,2.5688,2.5734,2.5815,2.5837,2.5909,2.5992,2.605,2.6157,2.6184,2.628,2.629,2.6254,2.6258,2.6297,2.6292,2.6416,2.6435,2.6359,2.6359,2.636,0,2.5281,2.5337,2.5431,2.5476,2.5521,2.5593,2.5644,2.5697,2.5748,2.5839,2.5883,2.5968,2.6038,2.617,2.6233,2.6315,2.6326,2.6364,2.6339,2.6324,2.6326,2.6321,2.6327,2.6367,2.6368,2.6368,2.6369,0,2.5356,2.5381,2.5451,2.5531,2.559,2.5656,2.5723,2.5758,2.5823,2.5879,2.5964,2.6019,2.6127,2.6212,2.63,2.6348,2.637,2.6376,2.639,2.6377,2.6353,2.6365,2.6263,2.6373,2.6373,2.6372,2.6372,2.6372,2.5402,2.5453,2.5527,2.5605,2.5661,2.5722,2.5777,2.5829,2.59,2.5992,2.602,2.6108,2.6184,2.6304,2.6353,2.6424,2.6421,2.6441,2.6446,2.645,2.6449,2.6343,2.644,2.644,2.644,2.644,2.644,0,2.5478,2.5528,2.5599,2.569,2.5751,2.5766,2.584,2.5891,2.5967,2.6035,2.6104,2.6201,2.6283,2.6353,2.6438,2.6481,2.6493,2.6501,2.6498,2.6509,2.6448,2.6426,2.649,2.649,2.649,2.649,2.649,2.649,2.5525,2.5612,2.5645,2.5761,2.581,2.5895,2.5937,2.5994,2.6049,2.6155,2.6223,2.6267,2.6336,2.6427,2.6503,2.6522,2.6551,2.6557,2.6577,2.6519,2.6513,2.6508,2.6488,2.6563,2.6563,2.6632,2.6633,2.6633]},{"header":{"parameterUnit":"m.s-1","parameterCategory":1,"la1":30.2991,"la2":30.254,"lo1":-89.0895,"lo2":-89.0444,"dy":0.0017,"dx":0.0017,"nx":28,"ny":28,"refTime":"2023-08-05T09:00:00:Z","depth":0,"parameterNumber":3,"parameterNumberName":"V-component_of_WINDS"},"data":[0,0,0,0,0,0,0,0,0,0,0,0,0,0,0,0,0,0,0,0,0,0,0,0,0,0,0,0,0,0,0,0,0,0,0,0,0,0,0,0,0,0,0,0,0,0,0,0,0,0,0,0,0,0,0,0,0,0,4.8995,4.8995,0,4.905,4.9051,4.9051,4.9058,4.9057,4.9057,4.9056,4.9105,4.9107,4.9109,0,0,0,0,0,0,0,0,0,0,0,0,0,4.8888,4.889,4.8995,4.8996,4.8996,4.905,4.9051,4.9051,4.9058,4.9057,4.9057,4.9056,4.9105,4.9107,4.9109,0,0,0,0,0,0,0,0,0,0,0,0,0,4.8937,4.889,4.8995,4.9006,4.9008,4.905,4.9051,4.9051,4.9058,4.9057,4.9056,4.9056,4.9104,4.9107,4.9109,4.9142,0,0,4.9118,4.9119,0,0,0,0,0,0,0,0,4.8935,4.8941,4.9004,4.9005,4.9007,4.9046,4.9031,4.9081,4.9058,4.9039,4.9056,4.9055,4.9086,4.909,4.9102,4.9144,4.9146,4.9118,4.9119,4.9121,4.9121,0,0,0,0,0,0,0,4.8931,4.8939,4.9016,4.9005,4.9007,4.9006,4.9012,4.904,4.9066,4.904,4.9041,4.9048,4.9087,4.9099,4.9103,4.9147,4.9118,4.912,4.9122,4.9123,4.9216,4.9217,0,0,0,0,0,0,4.8927,4.8936,4.9015,4.9018,4.8969,4.9009,4.9016,4.9034,4.9066,4.907,4.9048,4.9048,4.9095,4.91,4.9105,4.9144,4.9121,4.9123,4.9125,4.9215,4.9216,4.9217,0,0,0,0,0,0,4.8924,4.8934,4.9012,4.8977,4.8987,4.9011,4.9032,4.9036,4.9049,4.9072,4.9075,4.9057,4.9095,4.9101,4.9133,4.9145,4.9124,4.9127,4.9214,4.9216,4.9217,4.9222,0,0,0,0,0,0,4.8921,4.8933,4.8947,4.8978,4.8989,4.9041,4.9033,4.9038,4.9054,4.9054,4.9081,4.9084,4.9094,4.9128,4.9135,4.9149,4.9129,4.9213,4.9215,4.9216,4.9221,4.9223,4.9225,0,0,0,0,0,4.8917,4.8945,4.8948,4.8957,4.9008,4.9042,4.9049,4.9062,4.9055,4.9068,4.9083,4.9084,4.9143,4.9132,4.9139,4.9154,4.9212,4.9214,4.9216,4.9219,4.9223,4.9225,0,0,0,0,0,0,4.8912,4.8949,4.8953,4.8992,4.9014,4.9043,4.9061,4.9065,4.9087,4.9086,4.9099,4.9105,4.9136,4.9148,4.9134,4.9186,4.9177,4.918,4.9177,4.918,4.9182,4.9178,4.9131,0,0,0,0,0,4.8916,4.8944,4.8973,4.9004,4.9016,4.9036,4.9052,4.906,4.9083,4.9092,4.9109,4.9129,4.9152,4.9167,4.9189,4.9223,4.9227,4.9236,4.9238,4.924,4.9243,4.926,4.9264,4.9224,4.9224,4.9224,0,0,4.8924,4.8947,4.8963,4.9004,4.9023,4.9048,4.9044,4.9071,4.909,4.9095,4.9126,4.9139,4.9162,4.9195,4.921,4.9206,4.9255,4.9243,4.9244,4.9246,4.9262,4.9266,4.9269,4.9225,4.9225,4.9224,0,0,4.895,4.8972,4.9,4.9019,4.9047,4.9061,4.9068,4.9097,4.9106,4.9138,4.9143,4.9163,4.9203,4.9219,4.9232,4.9265,4.9265,4.9272,4.9283,4.93,4.9303,4.9306,4.9316,4.932,4.9274,4.9274,4.9274,0,4.8955,4.8996,4.9013,4.904,4.9057,4.9066,4.9093,4.9109,4.9143,4.9153,4.9149,4.9199,4.9215,4.9251,4.9259,4.927,4.9276,4.9268,4.9302,4.9305,4.9307,4.9317,4.9321,4.9275,4.9275,4.9275,4.9275,0,4.9,4.9028,4.9047,4.9082,4.9101,4.9128,4.9146,4.9163,4.9169,4.9182,4.9214,4.9234,4.926,4.9269,4.9275,4.9305,4.9302,4.93,4.9291,4.9312,4.9321,4.9325,4.9275,4.9275,4.9275,4.9275,0,0,4.9024,4.9068,4.9075,4.909,4.9123,4.9144,4.917,4.9198,4.9212,4.9234,4.9255,4.9289,4.9287,4.9302,4.931,4.9324,4.9347,4.932,4.9321,4.9323,4.938,4.9381,4.9385,4.9348,4.9349,4.935,4.9378,0,4.9053,4.9103,4.9119,4.9159,4.9185,4.9193,4.9216,4.9236,4.9249,4.927,4.9284,4.9307,4.9304,4.9313,4.9328,4.9341,4.9358,4.934,4.9365,4.9366,4.9359,4.939,4.9391,4.9416,4.9381,4.9382,4.9383,0,4.9094,4.912,4.9164,4.9193,4.9204,4.9224,4.9251,4.9272,4.9295,4.9303,4.932,4.9327,4.9352,4.9343,4.9376,4.9363,4.9375,4.9383,4.9384,4.9386,4.9375,4.9391,4.9425,4.9428,4.9389,4.9388,4.9388,0,4.9105,4.9151,4.9183,4.9196,4.9231,4.9245,4.926,4.9282,4.9298,4.932,4.933,4.9354,4.9367,4.9385,4.9397,4.9389,4.9429,4.9421,4.9434,4.9434,4.9441,4.944,4.9476,4.9451,4.9451,4.945,4.945,0,4.9135,4.9161,4.9189,4.9208,4.9237,4.9254,4.9281,4.9296,4.9316,4.9336,4.9344,4.9363,4.9378,4.9398,4.9407,4.9433,4.9439,4.9445,4.9446,4.9443,4.9442,4.945,4.9448,4.9451,4.9451,4.9451,4.9451,0,4.9152,4.9172,4.9207,4.9238,4.9247,4.9266,4.9291,4.9309,4.9323,4.9349,4.9356,4.9376,4.94,4.9414,4.9443,4.945,4.9478,4.9479,4.9471,4.9471,4.9484,4.9482,4.9524,4.953,4.9502,4.9502,4.9503,0,4.917,4.919,4.9224,4.924,4.9256,4.928,4.9297,4.9314,4.933,4.9358,4.9372,4.9397,4.9418,4.9456,4.9471,4.9494,4.9495,4.9508,4.9498,4.9494,4.9494,4.9492,4.9494,4.951,4.951,4.951,4.951,0,4.9198,4.9207,4.9232,4.9261,4.9281,4.9304,4.9326,4.9337,4.9357,4.9375,4.9401,4.9417,4.9449,4.9473,4.9497,4.9509,4.9512,4.9514,4.9518,4.9514,4.9508,4.951,4.9474,4.9512,4.9512,4.9512,4.9512,4.9512,4.9215,4.9234,4.926,4.9288,4.9307,4.9328,4.9346,4.9363,4.9386,4.9414,4.9422,4.9448,4.947,4.9503,4.9515,4.9535,4.9532,4.9539,4.954,4.9541,4.9541,4.9506,4.9539,4.9539,4.9539,4.9539,4.9539,0,4.9243,4.9261,4.9286,4.9318,4.9339,4.9344,4.9368,4.9385,4.9409,4.943,4.9451,4.948,4.9503,4.9522,4.9545,4.9557,4.9559,4.9562,4.9561,4.9564,4.9542,4.9536,4.956,4.956,4.956,4.956,4.956,4.956,4.9259,4.9291,4.9303,4.9343,4.936,4.9389,4.9402,4.9421,4.9437,4.9471,4.9491,4.9504,4.9523,4.9548,4.9568,4.9573,4.958,4.9584,4.9588,4.9567,4.9565,4.9563,4.9557,4.9585,4.9585,4.9608,4.9608,4.9608]}]]